Theta_e
310 310 309 310 312 312 312 313 315 316 317 317 316 316 315 318 318 319 318 319 319 319 320 320 320 321 322 322 320 320 327 328 327 330 329 327 329 335 333 335 332 330 331 337 351
310 309 310 312 312 312 313 314 316 317 317 316 317 316 318 318 319 319 319 319 319 320 320 322 322 322 322 322 322 324 327 327 326 327 328 326 327 332 331 331 332 329 333 339 349
308 309 312 312 312 313 314 315 316 317 317 315 318 317 318 319 320 319 319 319 320 320 320 320 321 322 323 323 323 325 326 325 324 324 324 324 324 325 327 330 327 325 327 335 344
309 311 313 313 313 313 314 315 316 317 315 318 319 317 317 316 322 319 319 319 320 320 320 321 322 323 323 323 323 324 323 324 322 321 322 323 322 322 323 323 322 324 331 331 334
311 313 313 313 313 314 314 315 316 317 315 319 320 317 317 319 320 320 320 319 320 320 321 322 323 323 324 322 323 324 323 322 321 321 322 322 322 323 324 322 324 332 334 334 333
312 313 313 313 313 313 314 315 316 316 314 319 320 316 318 320 319 319 320 320 320 321 321 322 323 323 323 323 324 323 323 323 322 322 321 323 323 323 323 323 324 325 327 329 333
312 313 314 314 313 313 313 314 315 316 314 318 321 318 320 319 320 320 321 321 322 321 322 321 322 323 323 324 323 323 324 324 323 322 322 322 324 325 323 324 324 325 325 325 325
312 313 314 313 313 313 312 312 314 316 314 318 319 321 321 320 320 321 321 321 321 321 322 321 322 323 324 323 323 324 324 325 324 323 321 322 326 324 324 325 326 326 326 326 327
311 312 312 313 312 312 312 311 313 315 313 317 317 320 321 320 321 320 321 322 322 321 321 322 323 323 323 325 325 325 326 325 324 323 324 324 326 324 324 325 326 327 327 328 328
311 312 312 312 312 316 318 315 312 313 314 317 316 322 321 321 321 320 321 321 322 323 323 324 324 325 325 325 325 325 324 324 325 323 323 325 326 324 324 325 326 326 327 328 328
310 311 311 312 318 320 321 321 322 323 321 319 322 322 322 322 320 321 321 322 323 324 325 324 326 326 325 324 324 324 324 324 324 322 324 325 325 325 324 324 325 325 326 327 328
310 311 311 318 321 320 320 322 321 320 324 320 321 322 321 321 321 322 323 324 323 324 324 325 325 324 323 323 323 324 324 324 323 322 323 325 325 324 323 323 323 324 324 325 325
311 311 313 321 320 319 321 320 320 320 324 320 321 322 323 321 322 322 323 324 324 324 324 325 323 322 323 323 324 324 324 324 324 323 323 324 325 324 323 322 322 322 322 322 322
312 318 320 320 322 320 322 320 320 321 326 325 323 323 321 321 322 322 322 323 324 325 324 324 321 323 324 323 322 323 322 321 322 323 324 323 323 326 324 324 322 322 321 321 320
313 320 321 321 321 323 320 320 320 323 330 326 323 322 321 322 323 323 322 324 325 325 325 323 323 323 324 322 321 322 320 320 320 321 322 321 322 326 324 323 323 322 321 321 320
314 318 322 321 321 320 318 317 321 331 330 323 321 322 322 322 323 323 323 323 323 325 325 323 321 321 321 320 319 319 319 319 320 320 322 322 320 319 323 323 323 321 320 320 319
316 318 322 322 321 319 320 322 329 331 326 324 324 322 323 324 323 324 325 326 326 327 327 324 324 321 319 320 319 318 319 320 320 321 319 321 319 320 323 322 321 321 320 319 318
316 313 320 321 320 320 323 327 330 327 326 325 324 323 325 325 325 325 325 326 324 325 326 326 326 322 318 318 318 318 318 320 318 319 317 319 320 324 322 319 319 319 319 318 317
316 317 319 322 323 319 326 329 329 327 325 325 325 325 326 325 325 326 326 326 324 324 327 326 326 319 318 318 318 319 320 319 322 321 321 319 320 321 320 320 319 318 317 317 316
320 325 324 321 319 321 326 326 326 323 323 324 327 326 327 325 325 325 326 323 322 321 322 325 326 319 318 317 318 320 318 322 320 323 317 316 316 317 321 320 319 318 317 316 315
325 325 322 319 320 326 325 326 324 321 323 325 326 326 325 325 323 325 325 323 321 320 321 322 323 321 317 318 318 320 319 319 319 319 319 318 317 319 318 318 318 317 316 315 314
319 328 321 319 326 328 326 325 320 322 322 323 323 324 324 323 323 324 324 324 319 320 322 321 322 320 319 317 317 318 319 319 321 321 320 320 321 319 317 317 317 316 315 314 313
323 325 321 320 326 327 324 322 321 322 322 323 323 322 322 323 323 322 322 319 320 320 322 322 322 324 319 321 319 320 320 319 320 321 323 325 321 318 318 318 316 315 314 313 312
322 325 323 322 322 326 326 325 323 319 320 320 321 321 322 322 322 322 322 319 320 321 314 318 322 322 319 318 318 319 319 319 320 325 324 321 320 318 317 317 315 314 313 312 311
319 323 319 325 324 324 323 324 323 322 320 320 321 322 322 322 321 322 321 320 319 316 319 321 321 319 318 317 318 318 318 318 320 321 323 320 318 317 316 316 314 312 311 310 309
319 319 319 321 322 323 320 324 323 322 321 321 322 320 321 322 321 321 320 320 320 319 320 320 320 319 320 319 319 319 318 319 320 319 317 317 316 315 314 313 312 311 310 309 308
311 312 317 319 322 322 324 323 322 321 318 319 320 320 320 319 317 317 318 318 318 319 321 320 318 321 322 321 320 322 320 318 317 317 317 318 316 314 314 312 311 310 309 309 307
Wind_Speed
3 4 7 9 10 10 10 12 12 11 10 8 8 7 10 16 15 13 10 6 5 3 6 6 4 5 4 3 1 2 7 7 5 6 10 8 4 2 2 3 3 1 5 3 9
5 7 10 11 10 10 11 12 12 10 9 8 9 8 18 17 14 14 13 14 11 9 5 5 5 6 5 4 2 7 4 5 4 6 10 7 1 5 4 3 6 3 2 2 10
7 11 12 11 10 11 12 11 11 9 7 8 9 12 16 12 11 12 12 13 12 9 9 7 5 4 8 3 3 1 9 8 7 5 1 4 5 1 4 4 14 13 3 1 6
11 12 11 11 11 11 11 11 10 7 6 8 8 9 5 1 3 5 8 9 10 9 6 5 5 6 6 6 6 11 8 4 6 4 2 2 5 12 13 11 11 4 4 0 3
12 12 11 11 11 10 10 10 9 6 6 9 7 6 2 6 9 7 8 7 9 7 4 5 7 7 7 8 7 9 7 4 4 7 8 10 8 8 18 18 8 4 4 3 5
12 11 10 9 9 9 8 8 8 5 5 8 7 6 6 8 6 5 6 6 3 3 4 3 4 7 7 6 2 5 5 4 2 7 4 9 11 3 17 15 9 7 5 6 8
10 10 9 8 7 6 6 7 7 5 3 6 7 8 4 6 5 4 5 3 3 2 2 4 5 5 10 10 7 11 9 8 7 5 5 5 9 10 13 11 9 9 10 11 11
8 8 7 5 5 4 3 5 7 5 1 3 6 8 7 6 5 5 6 5 6 4 7 6 7 8 2 11 8 8 6 8 9 5 4 8 7 9 10 9 9 10 10 11 11
6 6 4 4 3 2 2 3 6 5 3 1 3 1 9 6 4 4 5 6 5 9 14 10 6 5 7 12 10 8 4 3 8 5 3 6 8 7 7 7 8 9 10 12 13
5 5 4 4 3 2 2 2 3 4 3 1 2 5 7 5 2 3 5 5 7 10 8 3 3 7 7 8 5 5 6 3 2 4 2 5 7 6 6 6 8 9 11 13 15
5 5 5 5 4 3 6 5 3 3 1 1 4 4 7 2 5 4 4 4 5 6 5 2 2 5 5 5 5 1 4 4 2 3 2 2 4 5 5 5 8 9 12 14 16
5 6 7 8 7 6 4 3 4 1 3 2 1 2 3 3 5 6 7 6 3 5 7 6 8 4 4 2 1 4 5 2 3 1 7 7 5 4 5 7 7 8 11 13 14
5 6 9 9 8 8 8 6 4 2 3 4 2 3 4 3 4 6 4 6 10 11 7 10 8 3 4 3 2 1 6 3 8 2 6 6 11 10 7 6 6 7 9 11 13
5 8 9 9 4 4 3 4 5 2 5 6 7 4 4 4 4 3 3 1 3 7 8 8 4 2 3 5 9 9 3 7 9 9 9 3 9 12 10 8 5 4 5 7 10
4 7 6 4 5 1 3 5 4 3 4 5 6 4 5 3 7 3 4 1 5 6 7 6 3 3 4 5 7 6 7 7 9 11 11 13 7 10 10 9 7 3 2 4 7
2 8 6 3 1 4 7 4 1 6 4 6 5 7 10 5 3 3 2 4 3 3 6 8 3 4 5 1 3 5 8 7 6 6 9 4 5 4 6 9 7 4 1 4 7
1 9 6 3 1 6 3 3 5 5 4 7 6 6 6 3 4 2 2 3 4 5 7 5 3 4 6 9 5 8 8 4 4 5 5 3 7 3 5 3 2 2 2 3 7
3 5 7 4 2 5 2 5 5 2 3 4 3 6 4 1 2 1 3 6 2 5 5 6 7 3 4 6 7 5 6 4 5 6 11 7 5 5 4 3 2 2 4 8 11
4 5 5 1 3 3 6 6 2 3 3 4 7 7 5 4 3 3 2 1 2 4 5 3 3 5 6 5 5 3 1 4 5 8 8 1 4 10 7 5 4 4 8 12 15
4 3 2 1 3 1 6 3 2 1 1 2 4 2 4 2 4 4 4 2 3 3 4 3 4 1 3 3 6 6 3 4 2 4 9 6 8 6 6 8 4 9 11 15 18
3 5 3 2 1 5 4 3 5 3 1 3 2 2 1 1 3 3 2 5 1 2 3 1 2 7 4 3 3 6 4 1 4 4 5 8 5 6 8 8 8 16 20 20 22
0 5 3 1 6 1 3 3 2 6 3 3 2 2 1 1 2 3 3 2 1 2 1 3 2 4 3 3 1 3 3 3 3 3 7 10 14 6 4 11 12 17 19 22 24
5 3 3 2 4 4 4 4 2 4 2 2 2 1 1 2 3 4 2 3 1 2 3 4 2 3 5 6 7 7 5 7 5 5 10 9 8 6 7 11 8 18 21 27 28
4 3 2 1 2 3 5 6 6 3 3 3 4 3 4 4 3 3 5 3 1 1 3 2 4 8 6 7 4 5 8 8 9 7 12 14 20 17 17 17 21 24 25 29 32
5 2 1 1 3 0 3 2 7 5 3 5 4 5 5 4 4 5 4 5 4 4 2 3 6 6 9 9 9 11 13 12 13 14 14 18 18 18 15 18 24 24 29 32 33
3 3 2 1 2 4 3 6 8 5 6 6 6 6 5 4 4 2 4 5 6 6 5 4 6 5 10 10 11 14 14 13 12 13 15 15 17 15 22 22 26 26 29 33 33
5 3 2 2 3 5 3 4 4 5 4 2 5 6 5 1 1 1 0 0 3 4 8 4 4 5 6 1 9 12 9 8 7 9 11 13 16 20 18 23 26 30 32 29 37
Wind_Direction
120 123 129 129 125 119 116 118 118 114 102 81 50 42 98 105 89 76 72 67 69 124 146 143 146 171 153 141 96 231 235 203 153 183 116 144 170 162 95 146 137 95 16 66 159
129 130 132 129 124 119 119 121 121 112 95 62 46 103 116 102 91 73 59 60 62 73 119 167 153 173 150 136 133 245 217 67 47 72 132 134 274 151 217 167 205 248 331 143 168
130 133 131 126 122 121 122 124 122 112 84 56 58 136 125 115 97 54 66 63 57 70 82 138 146 166 130 143 63 319 97 122 103 84 28 124 140 155 266 191 10 337 81 177 201
131 130 126 121 121 123 124 125 124 114 80 60 80 153 146 65 82 55 63 70 60 64 48 126 164 155 150 117 111 114 99 96 85 57 210 141 108 78 48 7 339 321 8 342 206
131 128 123 122 123 125 127 130 132 116 76 60 74 172 178 118 102 77 62 62 60 45 68 92 127 148 131 131 137 116 116 100 105 92 70 101 66 99 29 8 17 20 351 320 288
135 131 127 125 124 126 133 140 142 125 81 65 76 120 142 120 101 87 66 46 45 52 68 109 111 114 125 125 335 147 137 128 107 91 100 98 61 10 4 1 6 9 343 318 299
143 140 137 134 132 133 141 154 160 150 90 68 69 108 123 105 109 77 43 31 88 107 103 100 139 211 150 121 135 153 151 129 84 138 133 151 75 35 4 9 7 355 333 323 320
152 153 150 143 143 145 152 174 179 173 140 75 63 117 95 137 112 76 62 54 70 138 123 115 114 137 187 124 159 199 240 194 81 152 144 223 107 43 13 17 24 17 5 349 337
152 163 160 149 151 151 157 170 181 196 201 137 61 138 111 117 99 57 41 43 99 105 117 100 127 119 161 195 177 194 174 168 122 61 161 251 116 47 30 38 40 36 31 25 16
157 157 151 144 131 121 135 145 152 155 179 230 106 158 138 110 81 61 38 49 148 133 117 161 147 157 169 220 224 150 178 195 242 80 108 106 111 85 56 55 52 49 46 42 37
151 155 147 129 97 98 124 103 151 153 154 34 93 85 119 107 82 80 44 67 154 195 149 99 198 55 35 18 30 279 262 266 92 90 215 88 125 93 78 77 70 56 51 46 44
126 144 140 119 100 90 117 95 62 91 153 167 167 128 148 119 139 89 55 65 118 136 151 155 65 78 75 100 213 262 269 229 201 109 279 179 157 133 113 86 71 60 54 49 46
111 132 138 128 115 92 83 71 36 23 242 135 169 152 143 161 116 75 64 87 66 84 76 67 81 126 102 89 291 321 304 289 298 257 252 233 201 181 152 130 100 75 59 48 44
116 133 137 130 116 108 57 28 17 5 213 132 167 152 167 149 121 44 31 28 113 96 85 82 93 60 70 63 336 284 19 293 280 274 289 236 290 192 166 162 149 107 54 34 22
144 150 145 165 138 61 308 327 324 299 199 140 132 151 177 227 124 122 53 23 52 112 253 97 127 0 30 18 336 12 319 296 288 272 289 231 256 106 174 193 170 168 48 24 9
167 173 158 147 68 314 314 299 239 230 148 145 149 174 174 171 127 130 176 82 118 99 71 123 112 35 20 3 332 309 261 251 262 258 241 107 263 235 183 237 168 196 278 344 344
89 178 180 169 234 321 307 173 212 263 148 151 158 190 182 149 150 263 237 193 270 234 179 175 118 110 1 303 192 326 310 307 234 207 280 102 265 308 100 147 275 251 281 316 325
97 160 185 207 323 345 161 222 240 98 146 118 164 168 195 246 148 177 222 217 108 252 279 276 182 5 9 15 334 354 333 311 302 319 315 236 262 76 93 150 186 264 306 303 318
122 136 140 183 323 345 235 230 76 128 89 159 164 202 153 141 292 220 279 330 39 354 279 278 150 113 55 30 324 59 347 9 300 265 265 340 209 191 170 187 221 300 314 314 315
158 167 191 288 334 298 237 36 123 57 56 220 231 296 214 127 248 227 193 82 115 20 331 78 271 178 98 236 71 336 96 227 187 297 311 324 312 310 190 246 240 280 310 313 310
173 222 254 276 348 223 246 94 128 91 87 343 128 150 81 291 284 234 66 110 88 96 51 73 255 135 205 206 321 169 192 312 302 288 293 309 3 51 316 329 309 314 317 312 314
158 235 278 228 230 261 190 134 134 131 119 106 90 85 273 179 245 231 227 32 76 191 278 62 295 255 344 104 227 281 279 293 280 262 261 282 292 49 354 315 304 298 307 311 308
334 290 302 181 254 183 141 140 124 170 101 143 122 342 178 197 236 231 177 107 123 205 180 158 212 284 190 171 191 241 224 255 283 285 279 283 281 186 254 256 279 297 316 314 309
328 249 168 77 63 298 187 181 158 107 111 104 122 154 175 197 204 205 186 147 113 127 129 182 248 249 270 340 320 244 248 255 263 277 275 282 305 308 320 321 325 322 312 309 314
348 71 348 1 114 333 248 196 193 176 169 179 171 220 199 215 218 221 200 169 170 152 159 244 262 253 266 278 266 274 278 277 265 268 278 293 302 311 335 326 314 314 318 317 317
1 330 311 221 285 247 176 206 223 167 191 195 238 170 192 248 252 274 216 224 252 184 211 201 267 275 271 259 269 270 270 269 269 277 282 291 293 329 329 312 321 321 320 315 318
21 11 316 153 198 240 217 227 244 202 193 247 208 182 208 208 266 21 54 309 284 232 205 217 259 258 281 257 284 270 258 249 271 281 288 290 303 318 320 319 318 322 315 324 324